Showing default

IRIDIUM 122, 42957

Orbit data source: Space-Track

IRIDIUM 122, 42957 is a payload satellite owned by Iridium (US) in LEO that was launched on Mon, 09 Oct 2017 UTC via an FALCON 9 launch vehicle from the Air Force Western Test Range (AFWTR). Payload-class satellites include a variety of spacecraft equipped with specific instruments for various scientific and technological missions. These include communications satellites like Starlink; space stations such as the ISS; scientific satellites like the Hubble; Earth observation satellites from companies like Planet Labs, Umbra, and HawkEye 360; GPS; miniature CubeSats for education and research; and military/defense satellites.

Loading next visibility...
Identifier
42957, 2017-061C
Orbit
LEO
Country
Flag of USUS
Related business
Manufacturer
OATK SSG Gilbert
Mission
Operational Commercial Communications
Bus & Motor
ELITEBUS, Unknown motor
Mass
860 kg wet, 700 kg dry
Launch date (UTC)
2017-10-09 (8 years ago)
Launch vehicle
FALCON 9
Launch site
Air Force Western Test Range (AFWTR)
Object type
Payload
Rocket body
Debris
Shape & HBR
Trap Box + 2 Pan, 4.8 m
Radar Cross Section
10.154 m², Large (>1 m²)

Expand to show TLE details & history
Last TLE update: 2 days ago

TLE from 2 days ago
0 IRIDIUM 122
1 42957U 17061C   25306.45512300  .00000009  00000-0 -36722-5 0  9993
2 42957  86.3937 119.9982 0001923  86.0079 274.1336 14.34217610422282
Epoch: 2025-11-02T10:55Z
TLE epoch observation values (Epoch: 2025-11-02T10:55:22.627Z)
Latitude
-0.00007°
Longitude
-85.81669°
Altitude
780.62 km
Speed
7.464 km/s
True Right ascension
07h 59m 59s
True Declination
0° 00' 00"
Sunlit
Object was in daylight at epoch
Visualization orbit readout
Latitude
Unknown
Longitude
Unknown
Altitude
Unknown
Speed
Unknown
Apparent Right ascension
Unknown
Apparent Declination
Unknown
Sunlit
N/A
Visualization observer readout
Local Sidereal Time
22:44:43
Azimuth
Unknown
Elevation
Unknown
Doppler factor
Unknown
Orbital elements
Apogee altitude
776.008 km
Perigee altitude
773.257 km
Semi-major axis
7,152.769 km
Eccentricity
0.00019
Inclination
86.3937°
RAAN
119.9982°
Arg. of periapsis
86.0079°
True anomaly
274.11162°
Mean anomaly
274.1336°
Eccentric anomaly
274.12261°
Mean motion
3.58783 °/min
Orbital period
100.34 mins
BSTAR
-0.0000036722
Loading maneuver chart data...
Computing Atmospheric mass density...
Loading historical data...
Loading historical data...
Loading historical data...
Loading historical data...
Loading historical data...
Loading historical data...
Loading historical data...

Documentation

Showing up to 5 results
|